Satellite: CUTE1-7
Catalog number: 32785
Epoch time:      08142.37101043
Element set:    0056
Inclination:      097.9939 deg
RA of node:       202.3531 deg
Eccentricity:    0.0014215
Arg of perigee:   219.9593 deg
Mean anomaly:     140.0574 deg
Mean motion:   14.81357550 rev/day
Decay rate:        7.5e-07 rev/day^2
Epoch rev:           00343
Checksum:              284

Satellite: COMPASS
Catalog number: 32787
Epoch time:      08142.37027653
Element set:    0046
Inclination:      097.9896 deg
RA of node:       202.3388 deg
Eccentricity:    0.0015097
Arg of perigee:   220.8012 deg
Mean anomaly:     139.2070 deg
Mean motion:   14.81405803 rev/day
Decay rate:        5.3e-07 rev/day^2
Epoch rev:           00343
Checksum:              280

Satellite: AAUSAT2
Catalog number: 32788
Epoch time:      08142.97646257
Element set:    0055
Inclination:      097.9913 deg
RA of node:       202.9467 deg
Eccentricity:    0.0014764
Arg of perigee:   217.4440 deg
Mean anomaly:     142.5751 deg
Mean motion:   14.81512971 rev/day
Decay rate:       -6.5e-07 rev/day^2
Epoch rev:           00352
Checksum:              309

Satellite: DELFIC3
Catalog number: 32789
Epoch time:      08142.91108798
Element set:    0055
Inclination:      097.9918 deg
RA of node:       202.8864 deg
Eccentricity:    0.0015061
Arg of perigee:   218.3591 deg
Mean anomaly:     141.6553 deg
Mean motion:   14.81381767 rev/day
Decay rate:       1.67e-06 rev/day^2
Epoch rev:           00351
Checksum:              318

Satellite: SEEDS
Catalog number: 32791
Epoch time:      08142.37243550
Element set:    0048
Inclination:      097.9946 deg
RA of node:       202.3458 deg
Eccentricity:    0.0015383
Arg of perigee:   218.6653 deg
Mean anomaly:     141.3458 deg
Mean motion:   14.81267587 rev/day
Decay rate:       1.90e-06 rev/day^2
Epoch rev:           00340
Checksum:              298

Satellite: CANX-2
Catalog number: 32797
Epoch time:      08142.66695120
Element set:      15
Inclination:      097.9967 deg
RA of node:       202.6548 deg
Eccentricity:    0.0015596
Arg of perigee:   218.8147 deg
Mean anomaly:     293.2722 deg
Mean motion:   14.81593525 rev/day
Decay rate:      2.571e-05 rev/day^2
Epoch rev:             215
Checksum:              319

/EX




_______________________________________________
Via the Keps mailing list courtesy of AMSAT-NA
http://amsat.org/mailman/listinfo/keps

--- ViaMAIL!/WC v1.60d
 * Origin: Chowdanet (401-724-4410) telnet://chowdanet.com  (1:323/120)